Time,TemperatureF,DewpointF,PressureIn,WindDirection,WindDirectionDegrees,WindSpeedMPH,WindSpeedGustMPH,Humidity,HourlyPrecipIn,Conditions,Clouds,dailyrainin,SoftwareType,DateUTC
2013-05-07 00:00:00,51.4,48.0,30.03,WNW,289,0.0,4.0,88,0.00,,,0.00,weatherlink.com 1.10,2013-05-07 07:00:00,
2013-05-07 00:15:00,51.4,48.0,30.04,WNW,289,0.0,0.0,88,0.00,,,0.00,weatherlink.com 1.10,2013-05-07 07:15:00,
2013-05-07 00:30:00,51.3,48.0,30.04,WNW,289,2.0,2.0,88,0.00,,,0.00,weatherlink.com 1.10,2013-05-07 07:30:00,
2013-05-07 00:45:00,51.3,48.0,30.05,WNW,289,0.0,0.0,89,0.00,,,0.00,weatherlink.com 1.10,2013-05-07 07:45:00,
2013-05-07 01:00:00,51.3,48.0,30.05,WNW,289,0.0,1.0,89,0.00,,,0.00,weatherlink.com 1.10,2013-05-07 08:00:00,
2013-05-07 01:15:00,51.3,48.0,30.05,WNW,289,0.0,2.0,89,0.00,,,0.00,weatherlink.com 1.10,2013-05-07 08:15:00,
2013-05-07 01:30:00,51.2,48.0,30.05,WNW,289,0.0,0.0,89,0.00,,,0.00,weatherlink.com 1.10,2013-05-07 08:30:00,
2013-05-07 01:45:00,51.2,48.0,30.05,WNW,289,0.0,0.0,89,0.00,,,0.00,weatherlink.com 1.10,2013-05-07 08:45:00,
2013-05-07 02:00:00,51.3,48.0,30.05,East,79,0.0,5.0,89,0.00,,,0.00,weatherlink.com 1.10,2013-05-07 09:00:00,
2013-05-07 02:15:00,51.2,48.0,30.05,West,267,0.0,1.0,89,0.00,,,0.00,weatherlink.com 1.10,2013-05-07 09:15:00,
2013-05-07 02:30:00,51.1,48.0,30.05,West,280,0.0,2.0,89,0.00,,,0.00,weatherlink.com 1.10,2013-05-07 09:30:00,
2013-05-07 02:45:00,51.1,48.0,30.05,West,280,0.0,0.0,89,0.00,,,0.00,weatherlink.com 1.10,2013-05-07 09:45:00,
2013-05-07 03:00:00,51.0,48.0,30.04,West,280,0.0,2.0,88,0.00,,,0.00,weatherlink.com 1.10,2013-05-07 10:00:00,
2013-05-07 03:15:00,51.0,48.0,30.04,West,280,0.0,0.0,88,0.00,,,0.00,weatherlink.com 1.10,2013-05-07 10:15:00,
2013-05-07 03:30:00,50.9,48.0,30.04,West,280,0.0,2.0,88,0.00,,,0.00,weatherlink.com 1.10,2013-05-07 10:30:00,
2013-05-07 03:45:00,50.8,48.0,30.04,West,280,0.0,0.0,89,0.00,,,0.00,weatherlink.com 1.10,2013-05-07 10:45:00,
2013-05-07 04:00:00,50.8,48.0,30.04,West,280,0.0,0.0,89,0.00,,,0.00,weatherlink.com 1.10,2013-05-07 11:00:00,
2013-05-07 04:15:00,50.8,48.0,30.05,West,280,0.0,0.0,89,0.00,,,0.00,weatherlink.com 1.10,2013-05-07 11:15:00,
2013-05-07 04:30:00,50.8,48.0,30.05,West,280,0.0,0.0,89,0.00,,,0.00,weatherlink.com 1.10,2013-05-07 11:30:00,
2013-05-07 04:45:00,50.7,48.0,30.05,West,280,0.0,0.0,89,0.00,,,0.00,weatherlink.com 1.10,2013-05-07 11:45:00,
2013-05-07 05:00:00,50.6,48.0,30.05,West,280,0.0,2.0,89,0.00,,,0.00,weatherlink.com 1.10,2013-05-07 12:00:00,
2013-05-07 05:15:00,50.5,47.0,30.05,West,280,0.0,1.0,89,0.00,,,0.00,weatherlink.com 1.10,2013-05-07 12:15:00,
2013-05-07 05:30:00,50.5,47.0,30.05,West,280,0.0,0.0,89,0.00,,,0.00,weatherlink.com 1.10,2013-05-07 12:30:00,
2013-05-07 05:45:00,50.4,47.0,30.05,West,280,0.0,0.0,89,0.00,,,0.00,weatherlink.com 1.10,2013-05-07 12:45:00,
2013-05-07 06:00:00,50.4,47.0,30.05,West,280,0.0,0.0,89,0.00,,,0.00,weatherlink.com 1.10,2013-05-07 13:00:00,
2013-05-07 06:16:00,50.4,47.0,30.06,West,280,0.0,0.0,89,0.00,,,0.00,weatherlink.com 1.10,2013-05-07 13:16:00,
2013-05-07 06:31:00,50.4,47.0,30.06,West,280,0.0,0.0,89,0.00,,,0.00,weatherlink.com 1.10,2013-05-07 13:31:00,
2013-05-07 06:46:00,50.5,47.0,30.07,West,280,0.0,0.0,89,0.00,,,0.00,weatherlink.com 1.10,2013-05-07 13:46:00,
2013-05-07 07:01:00,50.6,48.0,30.07,West,280,0.0,0.0,89,0.00,,,0.00,weatherlink.com 1.10,2013-05-07 14:01:00,
2013-05-07 07:16:00,50.7,48.0,30.07,West,280,0.0,0.0,89,0.00,,,0.00,weatherlink.com 1.10,2013-05-07 14:16:00,
2013-05-07 07:31:00,50.8,48.0,30.07,West,280,0.0,2.0,89,0.00,,,0.00,weatherlink.com 1.10,2013-05-07 14:31:00,
2013-05-07 07:46:00,50.8,48.0,30.07,West,280,0.0,3.0,89,0.00,,,0.00,weatherlink.com 1.10,2013-05-07 14:46:00,
2013-05-07 08:01:00,51.0,48.0,30.07,West,280,0.0,1.0,89,0.00,,,0.00,weatherlink.com 1.10,2013-05-07 15:01:00,
2013-05-07 08:16:00,51.0,48.0,30.08,West,280,0.0,0.0,89,0.00,,,0.00,weatherlink.com 1.10,2013-05-07 15:16:00,
2013-05-07 08:31:00,51.3,48.0,30.08,West,280,0.0,2.0,89,0.00,,,0.00,weatherlink.com 1.10,2013-05-07 15:31:00,
2013-05-07 08:46:00,51.4,48.0,30.08,West,269,2.0,3.0,88,0.00,,,0.00,weatherlink.com 1.10,2013-05-07 15:46:00,
2013-05-07 09:01:00,51.6,48.0,30.09,WNW,282,2.0,5.0,88,0.00,,,0.00,weatherlink.com 1.10,2013-05-07 16:01:00,
2013-05-07 09:16:00,51.3,48.0,30.09,West,260,3.0,7.0,89,0.00,,,0.00,weatherlink.com 1.10,2013-05-07 16:16:00,
2013-05-07 09:31:00,51.3,48.0,30.09,WNW,291,4.0,5.0,89,0.00,,,0.00,weatherlink.com 1.10,2013-05-07 16:31:00,
2013-05-07 09:46:00,51.3,48.0,30.09,West,275,4.0,7.0,88,0.00,,,0.00,weatherlink.com 1.10,2013-05-07 16:46:00,
2013-05-07 10:01:00,51.5,48.0,30.09,WSW,254,6.0,9.0,88,0.00,,,0.00,weatherlink.com 1.10,2013-05-07 17:01:00,
2013-05-07 10:16:00,51.6,48.0,30.09,West,259,2.0,5.0,88,0.00,,,0.00,weatherlink.com 1.10,2013-05-07 17:16:00,
2013-05-07 10:31:00,51.6,48.0,30.10,WNW,293,3.0,6.0,88,0.00,,,0.00,weatherlink.com 1.10,2013-05-07 17:31:00,
2013-05-07 10:46:00,51.6,48.0,30.10,WNW,300,4.0,6.0,88,0.00,,,0.00,weatherlink.com 1.10,2013-05-07 17:46:00,
2013-05-07 11:01:00,51.9,48.0,30.10,West,275,3.0,9.0,87,0.00,,,0.00,weatherlink.com 1.10,2013-05-07 18:01:00,
2013-05-07 11:16:00,52.3,49.0,30.10,West,269,6.0,8.0,87,0.00,,,0.00,weatherlink.com 1.10,2013-05-07 18:16:00,
2013-05-07 11:31:00,52.5,49.0,30.11,WNW,285,7.0,8.0,86,0.00,,,0.00,weatherlink.com 1.10,2013-05-07 18:31:00,
2013-05-07 11:46:00,52.7,48.0,30.11,West,279,5.0,10.0,85,0.00,,,0.00,weatherlink.com 1.10,2013-05-07 18:46:00,
2013-05-07 12:01:00,53.0,49.0,30.11,West,272,7.0,9.0,85,0.00,,,0.00,weatherlink.com 1.10,2013-05-07 19:01:00,
2013-05-07 12:16:00,53.0,48.0,30.11,West,262,5.0,9.0,84,0.00,,,0.00,weatherlink.com 1.10,2013-05-07 19:16:00,
2013-05-07 12:31:00,53.1,49.0,30.11,WSW,250,8.0,9.0,85,0.00,,,0.00,weatherlink.com 1.10,2013-05-07 19:31:00,
2013-05-07 12:46:00,53.5,49.0,30.11,West,276,6.0,10.0,85,0.00,,,0.00,weatherlink.com 1.10,2013-05-07 19:46:00,
2013-05-07 13:01:00,53.4,49.0,30.11,West,280,5.0,11.0,84,0.00,,,0.00,weatherlink.com 1.10,2013-05-07 20:01:00,
2013-05-07 13:16:00,53.2,49.0,30.11,NNW,337,1.0,11.0,85,0.00,,,0.00,weatherlink.com 1.10,2013-05-07 20:16:00,
2013-05-07 13:31:00,54.0,50.0,30.11,West,281,8.0,11.0,85,0.00,,,0.00,weatherlink.com 1.10,2013-05-07 20:31:00,
2013-05-07 13:46:00,54.2,50.0,30.11,NW,312,6.0,14.0,85,0.00,,,0.00,weatherlink.com 1.10,2013-05-07 20:46:00,
2013-05-07 14:01:00,54.4,49.0,30.11,West,279,8.0,14.0,83,0.00,,,0.00,weatherlink.com 1.10,2013-05-07 21:01:00,
2013-05-07 14:16:00,54.4,49.0,30.11,WNW,290,5.0,15.0,82,0.00,,,0.00,weatherlink.com 1.10,2013-05-07 21:16:00,
2013-05-07 14:31:00,54.5,50.0,30.11,West,277,8.0,15.0,84,0.00,,,0.00,weatherlink.com 1.10,2013-05-07 21:31:00,
2013-05-07 14:46:00,54.1,50.0,30.11,NW,315,5.0,12.0,85,0.00,,,0.00,weatherlink.com 1.10,2013-05-07 21:46:00,
2013-05-07 15:01:00,54.3,50.0,30.11,West,277,7.0,12.0,85,0.00,,,0.00,weatherlink.com 1.10,2013-05-07 22:01:00,
2013-05-07 15:16:00,53.9,50.0,30.11,West,271,5.0,13.0,85,0.00,,,0.00,weatherlink.com 1.10,2013-05-07 22:16:00,
2013-05-07 15:31:00,53.2,50.0,30.11,WNW,289,5.0,13.0,87,0.00,,,0.00,weatherlink.com 1.10,2013-05-07 22:31:00,
2013-05-07 15:46:00,53.2,50.0,30.12,WSW,257,8.0,10.0,87,0.00,,,0.00,weatherlink.com 1.10,2013-05-07 22:46:00,
2013-05-07 16:01:00,52.8,49.0,30.11,West,279,5.0,12.0,88,0.00,,,0.00,weatherlink.com 1.10,2013-05-07 23:01:00,
2013-05-07 16:17:00,53.0,49.0,30.11,West,275,3.0,11.0,87,0.00,,,0.00,weatherlink.com 1.10,2013-05-07 23:17:00,
2013-05-07 16:31:00,53.1,49.0,30.11,West,269,7.0,12.0,86,0.00,,,0.00,weatherlink.com 1.10,2013-05-07 23:31:00,
2013-05-07 16:46:00,53.2,49.0,30.11,WNW,284,6.0,11.0,85,0.00,,,0.00,weatherlink.com 1.10,2013-05-07 23:46:00,
2013-05-07 17:01:00,53.1,49.0,30.11,West,273,4.0,10.0,85,0.00,,,0.00,weatherlink.com 1.10,2013-05-08 00:01:00,
2013-05-07 17:16:00,53.1,48.0,30.11,WNW,296,3.0,8.0,84,0.00,,,0.00,weatherlink.com 1.10,2013-05-08 00:16:00,
2013-05-07 17:31:00,53.1,48.0,30.11,West,277,5.0,8.0,84,0.00,,,0.00,weatherlink.com 1.10,2013-05-08 00:31:00,
2013-05-07 17:46:00,53.2,49.0,30.11,West,280,4.0,8.0,84,0.00,,,0.00,weatherlink.com 1.10,2013-05-08 00:46:00,
2013-05-07 18:01:00,53.1,48.0,30.11,West,281,3.0,9.0,84,0.00,,,0.00,weatherlink.com 1.10,2013-05-08 01:01:00,
2013-05-07 18:16:00,52.9,49.0,30.11,WNW,289,5.0,10.0,85,0.00,,,0.00,weatherlink.com 1.10,2013-05-08 01:16:00,
2013-05-07 18:31:00,52.7,48.0,30.11,WNW,289,2.0,10.0,85,0.00,,,0.00,weatherlink.com 1.10,2013-05-08 01:31:00,
2013-05-07 18:46:00,52.4,48.0,30.11,West,267,5.0,8.0,85,0.00,,,0.00,weatherlink.com 1.10,2013-05-08 01:46:00,
2013-05-07 19:01:00,52.3,48.0,30.11,WNW,287,4.0,7.0,85,0.00,,,0.00,weatherlink.com 1.10,2013-05-08 02:01:00,
2013-05-07 19:16:00,52.3,48.0,30.11,West,277,3.0,8.0,85,0.00,,,0.00,weatherlink.com 1.10,2013-05-08 02:16:00,
2013-05-07 19:31:00,52.1,48.0,30.11,West,260,2.0,7.0,86,0.00,,,0.00,weatherlink.com 1.10,2013-05-08 02:31:00,
2013-05-07 19:46:00,52.1,48.0,30.11,West,272,3.0,8.0,86,0.00,,,0.00,weatherlink.com 1.10,2013-05-08 02:46:00,
2013-05-07 20:01:00,51.9,48.0,30.12,WNW,286,2.0,7.0,86,0.00,,,0.00,weatherlink.com 1.10,2013-05-08 03:01:00,
2013-05-07 20:16:00,51.8,48.0,30.12,WNW,282,0.0,4.0,86,0.00,,,0.00,weatherlink.com 1.10,2013-05-08 03:16:00,
2013-05-07 20:31:00,51.7,48.0,30.12,West,265,0.0,4.0,87,0.00,,,0.00,weatherlink.com 1.10,2013-05-08 03:31:00,
2013-05-07 20:47:00,51.5,48.0,30.12,West,266,0.0,3.0,87,0.00,,,0.00,weatherlink.com 1.10,2013-05-08 03:47:00,
2013-05-07 21:02:00,51.5,48.0,30.13,West,262,1.0,3.0,87,0.00,,,0.00,weatherlink.com 1.10,2013-05-08 04:02:00,
2013-05-07 21:17:00,51.5,48.0,30.13,West,267,1.0,3.0,87,0.00,,,0.00,weatherlink.com 1.10,2013-05-08 04:17:00,
2013-05-07 21:32:00,51.4,48.0,30.13,West,267,0.0,2.0,87,0.00,,,0.00,weatherlink.com 1.10,2013-05-08 04:32:00,
2013-05-07 21:47:00,51.3,48.0,30.14,West,267,0.0,3.0,87,0.00,,,0.00,weatherlink.com 1.10,2013-05-08 04:47:00,
2013-05-07 22:02:00,51.3,48.0,30.14,West,266,0.0,3.0,87,0.00,,,0.00,weatherlink.com 1.10,2013-05-08 05:02:00,
2013-05-07 22:17:00,51.3,48.0,30.15,West,266,0.0,0.0,87,0.00,,,0.00,weatherlink.com 1.10,2013-05-08 05:17:00,
2013-05-07 22:32:00,51.3,48.0,30.15,West,266,0.0,1.0,87,0.00,,,0.00,weatherlink.com 1.10,2013-05-08 05:32:00,
2013-05-07 22:47:00,51.2,48.0,30.16,West,266,0.0,0.0,87,0.00,,,0.00,weatherlink.com 1.10,2013-05-08 05:47:00,
2013-05-07 23:02:00,51.2,48.0,30.16,West,266,0.0,0.0,88,0.00,,,0.00,weatherlink.com 1.10,2013-05-08 06:02:00,
2013-05-07 23:17:00,51.0,48.0,30.16,West,266,0.0,0.0,88,0.00,,,0.00,weatherlink.com 1.10,2013-05-08 06:17:00,
2013-05-07 23:32:00,50.9,48.0,30.16,West,266,0.0,0.0,88,0.00,,,0.00,weatherlink.com 1.10,2013-05-08 06:32:00,
2013-05-07 23:47:00,50.8,47.0,30.16,West,266,0.0,0.0,88,0.00,,,0.00,weatherlink.com 1.10,2013-05-08 06:47:00,